Weather History for Monterey, CA

Change the Weather History Date:

Wednesday, October 10, 2012

  Actual Average Record
Temperature  
Mean Temperature 61 °F 59 °F  
Max Temperature 65 °F 68 °F 87 °F (1999)
Min Temperature 56 °F 51 °F 44 °F (2005)
Degree Days  
Heating Degree Days 4    
Month to date heating degree days 28  
Since 1 July heating degree days 557  
Cooling Degree Days 0    
Month to date cooling degree days 18  
Year to date cooling degree days 18  
Growing Degree Days 10 (Base 50)    
Moisture  
Dew Point 54 °F    
Average Humidity 80    
Maximum Humidity 93    
Minimum Humidity 67    
Precipitation  
Precipitation 0.25 in - 0.88 in (2000)
Month to date precipitation 0.25  
Year to date precipitation 7.97  
Since 1 July precipitation 0.32  
Sea Level Pressure  
Sea Level Pressure 29.98 in    
Wind  
Wind Speed 4 mph (WSW)    
Max Wind Speed 16 mph    
Max Gust Speed 22 mph    
Visibility 10 miles    
Events Rain , Thunderstorm    
T = Trace of Precipitation, MM = Missing Value Source: NWS Daily Summary

Daily Weather History Graph

Daily Weather History Graph

Search for Another Location

Airport:

Trip Planner

Search our weather history database for the weather conditions in past years. The results will help you decide how hot, cold, wet, or windy it might be!

Date:

Astronomy

Oct. 10, 2012 Rise Set
Actual Time 7:10 AM PDT 6:37 PM PDT
Civil Twilight 6:44 AM PDT 7:02 PM PDT
Nautical Twilight 6:14 AM PDT 7:32 PM PDT
Astronomical Twilight 5:44 AM PDT 8:02 PM PDT
Moon 2:00 AM PDT (10/10) 3:35 PM PDT (10/10)
Length of Visible Light 12h 18m
Length of Day
11h 26m
Waning Crescent, 26% of the Moon is Illuminated
Oct 10
Waning Crescent
Oct 15
New
Oct 21
First Quarter
Oct 29
Full
Nov 6
Last Quarter

Hourly Weather History & Observations

Time (PDT) Temp. Dew Point Humidity Pressure Visibility Wind Dir Wind Speed Gust Speed Precip Events Conditions
12:54 AM 60.1 °F 54.0 °F 80% 30.00 in 10.0 mi South 4.6 mph - N/A   Overcast
1:54 AM 59.0 °F 53.1 °F 81% 30.00 in 10.0 mi Calm Calm - N/A   Overcast
2:54 AM 59.0 °F 53.1 °F 81% 30.00 in 10.0 mi Calm Calm - N/A   Overcast
3:54 AM 59.0 °F 53.1 °F 81% 29.98 in 10.0 mi Calm Calm - N/A   Overcast
4:54 AM 57.9 °F 54.0 °F 87% 29.98 in 10.0 mi WNW 3.5 mph - 0.05 in   Overcast
5:54 AM 57.0 °F 54.0 °F 89% 29.99 in 9.0 mi SSW 5.8 mph - N/A   Mostly Cloudy
6:32 AM 55.4 °F 53.6 °F 94% 29.96 in 10.0 mi SSE 3.5 mph - N/A   Mostly Cloudy
6:41 AM 57.2 °F 55.4 °F 94% 29.96 in 10.0 mi Calm Calm - N/A   Mostly Cloudy
6:54 AM 57.0 °F 54.0 °F 89% 30.00 in 10.0 mi Calm Calm - N/A   Overcast
7:54 AM 57.0 °F 55.0 °F 93% 30.00 in 9.0 mi Calm Calm - N/A   Overcast
8:35 AM 57.2 °F 55.4 °F 94% 29.97 in 10.0 mi Calm Calm - N/A   Overcast
8:54 AM 57.9 °F 55.0 °F 90% 30.01 in 10.0 mi Calm Calm - N/A   Overcast
9:47 AM 60.8 °F 55.4 °F 82% 29.97 in 10.0 mi Calm Calm - N/A   Overcast
9:54 AM 60.1 °F 55.0 °F 83% 30.00 in 10.0 mi East 3.5 mph - N/A   Mostly Cloudy
10:54 AM 63.0 °F 55.0 °F 75% 30.00 in 10.0 mi WNW 4.6 mph - N/A   Scattered Clouds
11:54 AM 62.1 °F 55.0 °F 78% 30.00 in 10.0 mi NW 6.9 mph - N/A   Overcast
12:54 PM 64.9 °F 54.0 °F 68% 29.98 in 10.0 mi WSW 9.2 mph - N/A   Mostly Cloudy
1:54 PM 64.0 °F 54.0 °F 70% 29.96 in 10.0 mi SW 12.7 mph - N/A   Mostly Cloudy
2:03 PM 62.6 °F 53.6 °F 72% 29.94 in 10.0 mi SW 12.7 mph 21.9 mph N/A Thunderstorm Mostly Cloudy
2:25 PM 60.8 °F 53.6 °F 77% 29.94 in 9.0 mi SW 10.4 mph - N/A Thunderstorm Thunderstorm
2:54 PM 57.9 °F 55.9 °F 93% 29.98 in 5.0 mi Calm Calm - 0.20 in Rain , Thunderstorm Light Thunderstorms and Rain
2:56 PM 57.2 °F 55.4 °F 94% 29.94 in 5.0 mi West 4.6 mph - N/A   Overcast
3:20 PM 57.2 °F 55.4 °F 94% 29.95 in 5.0 mi WSW 4.6 mph - N/A   Overcast
3:27 PM 59.0 °F 55.4 °F 88% 29.95 in 10.0 mi West 5.8 mph - N/A   Overcast
3:30 PM 59.0 °F 55.4 °F 88% 29.95 in 10.0 mi West 6.9 mph - N/A   Overcast
3:54 PM 57.9 °F 55.0 °F 90% 29.98 in 9.0 mi West 9.2 mph - N/A   Overcast
4:50 PM 57.2 °F 55.4 °F 94% 29.95 in 10.0 mi West 4.6 mph - N/A   Overcast
4:54 PM 59.0 °F 55.0 °F 87% 29.98 in 10.0 mi WNW 5.8 mph - N/A   Overcast
5:51 PM 57.2 °F 55.4 °F 94% 29.95 in 10.0 mi West 4.6 mph - N/A   Overcast
5:54 PM 57.9 °F 55.0 °F 90% 29.99 in 10.0 mi West 4.6 mph - N/A   Overcast
6:36 PM 57.2 °F 53.6 °F 88% 29.95 in 10.0 mi WSW 4.6 mph - N/A   Overcast
6:54 PM 57.9 °F 54.0 °F 87% 29.99 in 10.0 mi WSW 3.5 mph - N/A   Overcast
7:12 PM 57.2 °F 53.6 °F 88% 29.96 in 10.0 mi Calm Calm - N/A   Overcast
7:54 PM 57.0 °F 54.0 °F 89% 30.00 in 10.0 mi Calm Calm - N/A   Mostly Cloudy
8:02 PM 57.2 °F 53.6 °F 88% 29.96 in 10.0 mi Calm Calm - N/A   Scattered Clouds
8:20 PM 57.2 °F 53.6 °F 88% 29.96 in 10.0 mi Calm Calm - N/A   Mostly Cloudy
8:54 PM 57.0 °F 53.1 °F 87% 30.00 in 10.0 mi Calm Calm - N/A   Overcast
9:41 PM 57.2 °F 53.6 °F 88% 29.96 in 10.0 mi South 3.5 mph - N/A   Overcast
9:54 PM 57.0 °F 53.1 °F 87% 30.00 in 10.0 mi SSW 3.5 mph - N/A   Overcast
10:54 PM 55.9 °F 52.0 °F 87% 30.01 in 10.0 mi South 4.6 mph - N/A   Overcast
11:54 PM 57.0 °F 52.0 °F 83% 30.01 in 10.0 mi SW 5.8 mph - N/A   Overcast